STARLINK-35446 (66432 NORAD) Tracking and Keplerian Element Data

This shows tracking and keplerian element data for the satellite.

Feedback or suggestion? Click here.




ElementValue
Catalog66432
NameSTARLINK-35446
Epoch Orbit729
Epoch Day354.05313024
Epoch Year2025
RAAN5.6707
Inclination42.9967
Eccentricity8.17E-05
Argument of Perigee174.5138
Mean Anonmoly185.5727
Mean Motion15.40724358
Decay Rate0.0002881
L11 66432U 25259L 25354.05313024 .00028810 00000+0 69377-3 0 9994
L22 66432 42.9967 5.6707 0000817 174.5138 185.5727 15.40724358 7292



Live tracking and technical data element details for STARLINK-35446 (NORAD 66432). STARLINK-35446 can be tracked NOW for your location showing map with azimuth and elevation plus other details from your city location.







IsCatalogInMostPopularTable: catalog: 66432, numindb: 16
Update: records affected: 1



GetName: 66432 STARLINK-35446

Hit Count: updated at: Thu, 21 May 2026 11:50:25 GMT